Location: Gettysburg
(39.8310°N, 77.2310°W)
Time: 16:41:58
(UTC-04:00)

ATLAS 2AS CENTAUR R/B - Visible Passes

Search period start: 23 May 2017 00:00
Search period end: 02 June 2017 00:00
Orbit: 906 x 1306 km, 63.7° (Epoch: 21 May)

Date Brightness Start Highest point End Pass type
(mag) Time Alt. Az. Time Alt. Az. Time Alt. Az.
23 May 5.4 00:44:46 10° NNW 00:49:56 18° NNE 00:54:58 10° ENE visible
23 May 3.7 02:35:13 10° NNW 02:43:03 52° NE 02:50:18 10° SE visible
23 May 3.4 04:26:45 10° NW 04:33:49 37° WSW 04:40:23 10° S visible
23 May 5.7 22:05:32 10° NW 22:09:05 13° NNW 22:12:38 10° NNE visible
24 May 5.5 00:00:00 10° NNW 00:04:09 14° NNE 00:08:13 10° NE visible
24 May 4.3 01:50:30 10° NNW 01:57:51 37° NE 02:04:45 10° ESE visible
24 May 3.0 03:41:31 10° NW 03:49:16 59° WSW 03:56:25 10° SSE visible
24 May 5.6 21:18:41 10° NW 21:23:12 16° NNW 21:27:46 10° NNE visible
24 May 5.6 23:15:01 10° NNW 23:18:14 13° N 23:21:25 10° NNE visible
25 May 4.8 01:05:50 10° NNW 01:12:29 27° NE 01:18:48 10° E visible
25 May 2.9 02:56:31 10° NW 03:04:34 88° SW 03:11:57 10° SSE visible
25 May 4.2 04:49:46 10° WNW 04:54:21 17° WSW 04:58:44 10° SW visible
25 May 5.7 22:29:28 10° NNW 22:32:14 12° N 22:35:00 10° NNE visible
26 May 5.2 00:21:11 10° NNW 00:26:56 21° NNE 00:32:30 10° ENE visible
26 May 3.3 02:11:41 10° NNW 02:19:40 64° NE 02:26:23 13° SE visible
26 May 3.7 04:03:39 10° NW 04:10:04 28° WSW 04:13:39 19° SSW visible
26 May 5.7 21:43:09 10° NNW 21:46:14 12° N 21:49:20 10° NNE visible
26 May 5.3 23:36:28 10° NNW 23:41:13 16° NNE 23:45:52 10° ENE visible
27 May 3.9 01:26:56 10° NNW 01:34:35 45° NE 01:41:14 12° ESE visible
27 May 3.2 03:18:12 10° NW 03:25:38 45° WSW 03:28:32 32° SSW visible
27 May 5.6 20:56:22 10° NW 21:00:18 14° NNW 21:04:16 10° NNE visible
27 May 5.4 22:51:38 10° NNW 22:55:22 13° NNE 22:59:04 10° NE visible
28 May 4.4 00:42:14 10° NNW 00:49:19 32° NE 00:56:00 10° E visible
28 May 2.9 02:33:05 10° NW 02:41:01 70° WSW 02:43:50 41° S visible
28 May 4.5 04:28:01 10° W 04:30:28 12° W 04:31:10 12° WSW visible
28 May 5.5 22:06:28 10° NNW 22:09:25 12° N 22:12:22 10° NNE visible
28 May 4.9 23:57:34 10° NNW 00:03:53 24° NNE 00:09:54 10° E visible
29 May 3.0 01:48:10 10° NNW 01:56:13 80° NE 01:59:22 39° SE visible
29 May 4.0 03:40:47 10° WNW 03:46:16 21° WSW 03:46:45 21° WSW visible
29 May 5.6 21:20:37 10° NNW 21:23:25 12° N 21:26:13 10° NNE visible
29 May 5.1 23:12:54 10° NNW 23:18:15 19° NNE 23:23:27 10° ENE visible
30 May 3.5 01:03:22 10° NNW 01:11:15 55° NE 01:15:07 29° ESE visible
30 May 3.5 02:55:01 10° NW 03:01:55 34° WSW 03:02:29 34° WSW visible
30 May 5.3 22:28:10 10° NNW 22:32:29 15° NNE 22:36:44 10° NE visible
31 May 4.1 00:18:38 10° NNW 00:26:06 39° NE 00:30:59 19° E visible
31 May 3.0 02:09:44 10° NW 02:17:24 54° WSW 02:18:22 51° SW visible
31 May 5.4 21:43:14 10° NNW 21:46:35 13° N 21:49:55 10° NE visible
31 May 4.5 23:33:58 10° NNW 23:40:45 28° NE 23:46:58 11° E visible
01 Jun 2.8 01:24:42 10° NW 01:32:43 82° WSW 01:34:21 59° SSE visible
01 Jun 4.5 03:18:20 10° WNW 03:21:45 15° W 03:21:45 15° W visible
01 Jun 5.5 20:57:49 10° NNW 21:00:36 12° N 21:03:23 10° NNE visible
01 Jun 4.9 22:49:19 10° NNW 22:55:14 21° NNE 23:00:57 10° ENE visible
